| time (UTC) | temp F | wind direction | speed knots | gust knots | rain 1hr in | rain 24hr in | rain mn in | humidity % | barometer mb |
| 20260507132830 | 53 | 82 | 0.9 | 0.9 | 0.00 | 0.00 | 0.00 | 82 | 1017.7 |
| 20260507132325 | 52 | 49 | 0.0 | 0.0 | 0.00 | 0.00 | 0.00 | 84 | 1017.8 |
| 20260507131823 | 51 | 42 | 0.0 | 0.0 | 0.00 | 0.00 | 0.00 | 86 | 1017.8 |
| 20260507131319 | 51 | 53 | 0.0 | 0.0 | 0.00 | 0.00 | 0.00 | 91 | 1017.7 |
| 20260507130816 | 50 | 53 | 0.0 | 0.0 | 0.00 | 0.00 | 0.00 | 97 | 1017.8 |
| 20260507130314 | 50 | 50 | 0.0 | 0.0 | 0.00 | 0.00 | 0.00 | 99 | 1017.6 |
| 20260507125813 | 49 | 52 | 0.0 | 0.0 | 0.00 | 0.00 | 0.00 | 99 | 1017.7 |
| 20260507125309 | 49 | 34 | 1.7 | 1.7 | 0.00 | 0.00 | 0.00 | 99 | 1017.6 |
| 20260507124806 | 49 | 51 | 0.0 | 0.0 | 0.00 | 0.00 | 0.00 | 99 | 1017.4 |
| 20260507124303 | 48 | 54 | 0.0 | 0.0 | 0.00 | 0.00 | 0.00 | 99 | 1017.5 |
| 20260507123801 | 48 | 51 | 0.0 | 0.0 | 0.00 | 0.00 | 0.00 | 99 | 1017.5 |
| 20260507123259 | 48 | 48 | 0.0 | 0.0 | 0.00 | 0.00 | 0.00 | 99 | 1017.3 |
| 20260507122754 | 47 | 48 | 0.0 | 0.0 | 0.00 | 0.00 | 0.00 | 99 | 1017.3 |
| 20260507122249 | 47 | 47 | 0.0 | 0.0 | 0.00 | 0.00 | 0.00 | 99 | 1017.3 |
| 20260507121746 | 47 | 45 | 0.0 | 0.9 | 0.00 | 0.00 | 0.00 | 99 | 1017.1 |
| 20260507121242 | 46 | 48 | 0.0 | 0.0 | 0.00 | 0.00 | 0.00 | 99 | 1017.1 |
| 20260507120738 | 46 | 48 | 0.0 | 0.0 | 0.00 | 0.00 | 0.00 | 99 | 1017.2 |
| 20260507120235 | 46 | 48 | 0.0 | 0.0 | 0.00 | 0.00 | 0.00 | 99 | 1017.0 |
| 20260507115731 | 45 | 48 | 0.0 | 0.0 | 0.00 | 0.00 | 0.00 | 99 | 1016.9 |
| 20260507115227 | 45 | 48 | 0.0 | 0.0 | 0.00 | 0.00 | 0.00 | 99 | 1017.0 |
| 20260507114723 | 44 | 48 | 0.0 | 0.0 | 0.00 | 0.00 | 0.00 | 99 | 1017.0 |
| 20260507114221 | 44 | 48 | 0.0 | 0.0 | 0.00 | 0.00 | 0.00 | 99 | 1016.6 |
| 20260507113718 | 44 | 48 | 0.0 | 0.0 | 0.00 | 0.00 | 0.00 | 99 | 1016.7 |
| 20260507113215 | 44 | 48 | 0.0 | 0.0 | 0.00 | 0.00 | 0.00 | 99 | 1016.7 |
| 20260507112712 | 44 | 48 | 0.0 | 0.0 | 0.00 | 0.00 | 0.00 | 99 | 1016.7 |
| 20260507112209 | 44 | 48 | 0.0 | 0.0 | 0.00 | 0.00 | 0.00 | 99 | 1016.7 |
| 20260507111706 | 44 | 48 | 0.0 | 0.0 | 0.00 | 0.00 | 0.00 | 99 | 1016.6 |
| 20260507111203 | 44 | 48 | 0.0 | 0.0 | 0.00 | 0.00 | 0.00 | 99 | 1016.4 |
| 20260507110659 | 44 | 48 | 0.0 | 0.0 | 0.00 | 0.00 | 0.00 | 99 | 1016.7 |
| 20260507110156 | 44 | 48 | 0.0 | 0.0 | 0.00 | 0.00 | 0.00 | 99 | 1016.7 |
| 20260507105653 | 44 | 48 | 0.0 | 0.0 | 0.00 | 0.00 | 0.00 | 99 | 1016.4 |
| 20260507105149 | 44 | 48 | 0.0 | 0.0 | 0.00 | 0.00 | 0.00 | 99 | 1016.5 |
| 20260507104646 | 45 | 48 | 0.0 | 0.0 | 0.00 | 0.00 | 0.00 | 99 | 1016.6 |
| 20260507104142 | 45 | 48 | 0.0 | 0.0 | 0.00 | 0.00 | 0.00 | 99 | 1016.6 |
| 20260507103638 | 45 | 48 | 0.0 | 0.0 | 0.00 | 0.00 | 0.00 | 99 | 1016.6 |
| 20260507103136 | 45 | 48 | 0.0 | 0.0 | 0.00 | 0.00 | 0.00 | 99 | 1016.5 |
| 20260507102632 | 45 | 48 | 0.0 | 0.0 | 0.00 | 0.00 | 0.00 | 99 | 1016.6 |
| 20260507102128 | 45 | 48 | 0.0 | 0.0 | 0.00 | 0.00 | 0.00 | 99 | 1016.6 |
| 20260507101624 | 45 | 48 | 0.0 | 0.0 | 0.00 | 0.00 | 0.00 | 99 | 1016.4 |
| 20260507101120 | 45 | 48 | 0.0 | 0.0 | 0.00 | 0.00 | 0.00 | 99 | 1016.5 |
| 20260507100618 | 46 | 48 | 0.0 | 0.0 | 0.00 | 0.00 | 0.00 | 99 | 1016.4 |
| 20260507100116 | 46 | 48 | 0.0 | 0.0 | 0.00 | 0.00 | 0.00 | 99 | 1016.5 |
| 20260507095613 | 46 | 48 | 0.0 | 0.0 | 0.00 | 0.00 | 0.00 | 99 | 1016.4 |
| 20260507095110 | 46 | 48 | 0.0 | 0.0 | 0.00 | 0.00 | 0.00 | 99 | 1016.3 |
| 20260507094606 | 46 | 48 | 0.0 | 0.0 | 0.00 | 0.00 | 0.00 | 99 | 1016.3 |
| 20260507094103 | 46 | 48 | 0.0 | 0.0 | 0.00 | 0.00 | 0.00 | 99 | 1016.5 |
| 20260507093600 | 46 | 48 | 0.0 | 0.0 | 0.00 | 0.00 | 0.00 | 99 | 1016.6 |
| 20260507093059 | 46 | 48 | 0.0 | 0.0 | 0.00 | 0.00 | 0.00 | 99 | 1016.4 |
| 20260507092555 | 46 | 48 | 0.0 | 0.0 | 0.00 | 0.00 | 0.00 | 99 | 1016.3 |
| 20260507092052 | 46 | 48 | 0.0 | 0.0 | 0.00 | 0.00 | 0.00 | 99 | 1016.1 |
| 20260507091549 | 46 | 48 | 0.0 | 0.0 | 0.00 | 0.00 | 0.00 | 99 | 1016.0 |
| 20260507091045 | 46 | 48 | 0.0 | 0.0 | 0.00 | 0.00 | 0.00 | 99 | 1016.3 |
| 20260507090541 | 46 | 48 | 0.0 | 0.0 | 0.00 | 0.00 | 0.00 | 99 | 1015.9 |
| 20260507090038 | 46 | 48 | 0.0 | 0.0 | 0.00 | 0.00 | 0.00 | 99 | 1015.6 |
| 20260507085535 | 46 | 48 | 0.0 | 0.0 | 0.00 | 0.00 | 0.00 | 99 | 1015.7 |
| 20260507085031 | 46 | 48 | 0.0 | 0.0 | 0.00 | 0.00 | 0.00 | 99 | 1015.6 |
| 20260507084528 | 46 | 48 | 0.0 | 0.0 | 0.00 | 0.00 | 0.00 | 99 | 1015.7 |
| 20260507084025 | 47 | 48 | 0.0 | 0.0 | 0.00 | 0.00 | 0.00 | 99 | 1015.7 |
| 20260507083521 | 47 | 48 | 0.0 | 0.0 | 0.00 | 0.00 | 0.00 | 99 | 1015.7 |
| 20260507083019 | 47 | 48 | 0.0 | 0.0 | 0.00 | 0.00 | 0.00 | 99 | 1015.8 |
| 20260507082514 | 47 | 48 | 0.0 | 0.0 | 0.00 | 0.00 | 0.00 | 99 | 1015.7 |
| 20260507082011 | 47 | 48 | 0.0 | 0.0 | 0.00 | 0.00 | 0.00 | 99 | 1015.8 |
| 20260507081507 | 47 | 48 | 0.0 | 0.0 | 0.00 | 0.00 | 0.00 | 99 | 1015.8 |
| 20260507081004 | 47 | 48 | 0.0 | 0.0 | 0.00 | 0.00 | 0.00 | 99 | 1015.6 |
| 20260507080500 | 47 | 48 | 0.0 | 0.0 | 0.00 | 0.00 | 0.00 | 99 | 1015.6 |
| 20260507075955 | 48 | 48 | 0.0 | 0.0 | 0.00 | 0.00 | 0.00 | 99 | 1015.8 |
| 20260507075452 | 48 | 48 | 0.0 | 0.0 | 0.00 | 0.00 | 0.00 | 99 | 1015.7 |
| 20260507074948 | 48 | 48 | 0.0 | 0.0 | 0.00 | 0.00 | 0.00 | 99 | 1016.0 |
| 20260507074445 | 48 | 48 | 0.0 | 0.0 | 0.00 | 0.00 | 0.00 | 99 | 1015.9 |
| 20260507073944 | 48 | 48 | 0.0 | 0.0 | 0.00 | 0.00 | 0.00 | 99 | 1016.0 |
| 20260507073439 | 49 | 48 | 0.0 | 0.0 | 0.00 | 0.00 | 0.00 | 99 | 1015.8 |
| 20260507072936 | 49 | 48 | 0.0 | 0.0 | 0.00 | 0.00 | 0.00 | 99 | 1015.7 |
| 20260507072434 | 49 | 48 | 0.0 | 0.0 | 0.00 | 0.00 | 0.00 | 99 | 1015.7 |
| 20260507071931 | 49 | 48 | 0.0 | 0.0 | 0.00 | 0.00 | 0.00 | 99 | 1015.6 |
| 20260507071428 | 49 | 48 | 0.0 | 0.0 | 0.00 | 0.00 | 0.00 | 99 | 1015.8 |
| 20260507070924 | 49 | 48 | 0.0 | 0.0 | 0.00 | 0.00 | 0.00 | 99 | 1015.9 |
| 20260507070422 | 49 | 48 | 0.0 | 0.0 | 0.00 | 0.00 | 0.00 | 99 | 1015.8 |
| 20260507065919 | 50 | 48 | 0.0 | 0.0 | 0.00 | 0.00 | 0.00 | 99 | 1015.7 |
| 20260507065416 | 50 | 48 | 0.0 | 0.0 | 0.00 | 0.00 | 0.00 | 99 | 1015.6 |
| 20260507064913 | 50 | 48 | 0.0 | 0.0 | 0.00 | 0.00 | 0.00 | 99 | 1015.8 |
| 20260507064411 | 50 | 48 | 0.0 | 0.0 | 0.00 | 0.00 | 0.00 | 99 | 1015.7 |
| 20260507063908 | 50 | 48 | 0.0 | 0.0 | 0.00 | 0.00 | 0.00 | 99 | 1015.6 |
| 20260507063406 | 51 | 48 | 0.0 | 0.0 | 0.00 | 0.00 | 0.00 | 99 | 1015.8 |
| 20260507062902 | 50 | 48 | 0.0 | 0.0 | 0.00 | 0.00 | 0.00 | 99 | 1015.8 |
| 20260507062359 | 50 | 48 | 0.0 | 0.0 | 0.00 | 0.00 | 0.00 | 99 | 1015.8 |
| 20260507061857 | 50 | 48 | 0.0 | 0.0 | 0.00 | 0.00 | 0.00 | 99 | 1015.9 |
| 20260507061355 | 50 | 48 | 0.0 | 0.0 | 0.00 | 0.00 | 0.00 | 99 | 1015.8 |
| 20260507060853 | 50 | 48 | 0.0 | 0.0 | 0.00 | 0.00 | 0.00 | 99 | 1015.8 |
| 20260507060349 | 50 | 48 | 0.0 | 0.0 | 0.00 | 0.00 | 0.00 | 99 | 1015.9 |
| 20260507055846 | 50 | 48 | 0.0 | 0.0 | 0.00 | 0.00 | 0.00 | 99 | 1016.1 |
| 20260507055341 | 51 | 48 | 0.0 | 0.0 | 0.00 | 0.00 | 0.00 | 99 | 1016.0 |
| 20260507054838 | 51 | 48 | 0.0 | 0.0 | 0.00 | 0.00 | 0.00 | 99 | 1015.9 |
| 20260507054334 | 51 | 48 | 0.0 | 0.0 | 0.00 | 0.00 | 0.00 | 99 | 1015.9 |
| 20260507053831 | 51 | 48 | 0.0 | 0.0 | 0.00 | 0.00 | 0.00 | 99 | 1016.1 |
| 20260507053329 | 51 | 48 | 0.0 | 0.0 | 0.00 | 0.00 | 0.00 | 99 | 1015.9 |
| 20260507052828 | 51 | 48 | 0.0 | 0.0 | 0.00 | 0.00 | 0.00 | 99 | 1016.1 |
| 20260507052324 | 51 | 48 | 0.0 | 0.0 | 0.00 | 0.00 | 0.00 | 99 | 1015.9 |
| 20260507051822 | 51 | 48 | 0.0 | 0.0 | 0.00 | 0.00 | 0.00 | 99 | 1015.8 |
| 20260507051319 | 51 | 48 | 0.0 | 0.0 | 0.00 | 0.00 | 0.00 | 99 | 1015.9 |
| 20260507050816 | 50 | 48 | 0.0 | 0.0 | 0.00 | 0.00 | 0.00 | 99 | 1015.9 |
| 20260507050312 | 50 | 48 | 0.0 | 0.0 | 0.00 | 0.00 | 0.00 | 99 | 1015.8 |
| 20260507045809 | 50 | 48 | 0.0 | 0.0 | 0.00 | 0.22 | 0.22 | 99 | 1015.8 |
| 20260507045307 | 50 | 48 | 0.0 | 0.0 | 0.00 | 0.22 | 0.22 | 99 | 1015.9 |
| 20260507044803 | 50 | 48 | 0.0 | 0.0 | 0.00 | 0.22 | 0.22 | 99 | 1015.7 |
| 20260507044259 | 50 | 48 | 0.0 | 0.0 | 0.00 | 0.22 | 0.22 | 99 | 1015.8 |
| 20260507043755 | 50 | 48 | 0.0 | 0.0 | 0.00 | 0.22 | 0.22 | 99 | 1015.9 |
| 20260507043252 | 50 | 48 | 0.0 | 0.0 | 0.00 | 0.22 | 0.22 | 99 | 1015.9 |
| 20260507042748 | 50 | 48 | 0.0 | 0.0 | 0.00 | 0.22 | 0.22 | 99 | 1015.9 |
| 20260507042243 | 50 | 48 | 0.0 | 0.0 | 0.00 | 0.22 | 0.22 | 99 | 1016.0 |
| 20260507041742 | 50 | 48 | 0.0 | 0.0 | 0.00 | 0.22 | 0.22 | 99 | 1016.3 |
| 20260507041238 | 50 | 48 | 0.0 | 0.0 | 0.00 | 0.22 | 0.22 | 99 | 1016.1 |
| 20260507040735 | 50 | 48 | 0.0 | 0.0 | 0.00 | 0.22 | 0.22 | 99 | 1016.1 |
| 20260507040231 | 50 | 48 | 0.0 | 0.0 | 0.00 | 0.22 | 0.22 | 99 | 1016.0 |
| 20260507035727 | 51 | 48 | 0.0 | 0.0 | 0.00 | 0.22 | 0.22 | 99 | 1015.9 |
| 20260507035223 | 51 | 48 | 0.0 | 0.0 | 0.00 | 0.22 | 0.22 | 99 | 1015.9 |
| 20260507034720 | 51 | 48 | 0.0 | 0.0 | 0.00 | 0.22 | 0.22 | 99 | 1016.1 |
| 20260507034217 | 51 | 48 | 0.0 | 0.0 | 0.00 | 0.22 | 0.22 | 99 | 1015.8 |
| 20260507033716 | 51 | 48 | 0.0 | 0.0 | 0.00 | 0.22 | 0.22 | 99 | 1015.9 |
| 20260507033213 | 51 | 48 | 0.0 | 0.0 | 0.00 | 0.22 | 0.22 | 99 | 1016.1 |
| 20260507032710 | 51 | 48 | 0.0 | 0.0 | 0.00 | 0.22 | 0.22 | 99 | 1015.8 |
| 20260507032206 | 51 | 48 | 0.0 | 0.0 | 0.00 | 0.22 | 0.22 | 99 | 1016.0 |
| 20260507031703 | 52 | 48 | 0.0 | 0.0 | 0.00 | 0.22 | 0.22 | 99 | 1015.9 |
| 20260507031159 | 52 | 48 | 0.0 | 0.0 | 0.00 | 0.22 | 0.22 | 99 | 1015.7 |
| 20260507030656 | 52 | 48 | 0.0 | 0.0 | 0.00 | 0.22 | 0.22 | 99 | 1015.3 |
| 20260507030154 | 52 | 48 | 0.0 | 0.0 | 0.00 | 0.22 | 0.22 | 99 | 1015.5 |
| 20260507025651 | 52 | 48 | 0.0 | 0.0 | 0.00 | 0.22 | 0.22 | 98 | 1015.4 |
| 20260507025148 | 52 | 48 | 0.0 | 0.0 | 0.00 | 0.22 | 0.22 | 98 | 1015.3 |
| 20260507024646 | 52 | 48 | 0.0 | 0.0 | 0.00 | 0.22 | 0.22 | 98 | 1015.2 |
| 20260507024143 | 52 | 48 | 0.0 | 0.0 | 0.00 | 0.22 | 0.22 | 98 | 1015.2 |
| 20260507023638 | 53 | 48 | 0.0 | 0.0 | 0.00 | 0.22 | 0.22 | 98 | 1015.4 |
| 20260507023136 | 53 | 48 | 0.0 | 0.0 | 0.00 | 0.22 | 0.22 | 98 | 1014.9 |
| 20260507022633 | 53 | 48 | 0.0 | 0.0 | 0.00 | 0.22 | 0.22 | 98 | 1015.0 |
| 20260507022128 | 53 | 48 | 0.0 | 0.0 | 0.00 | 0.22 | 0.22 | 98 | 1015.5 |
| 20260507021625 | 53 | 48 | 0.0 | 0.0 | 0.00 | 0.22 | 0.22 | 98 | 1015.5 |
| 20260507021120 | 53 | 48 | 0.0 | 0.0 | 0.00 | 0.22 | 0.22 | 98 | 1015.6 |
| 20260507020619 | 53 | 48 | 0.0 | 0.0 | 0.00 | 0.22 | 0.22 | 98 | 1015.6 |
| 20260507020115 | 53 | 48 | 0.0 | 0.0 | 0.00 | 0.22 | 0.22 | 98 | 1015.5 |
| 20260507015613 | 53 | 48 | 0.0 | 0.0 | 0.00 | 0.22 | 0.22 | 98 | 1015.2 |
| 20260507015110 | 53 | 48 | 0.0 | 0.0 | 0.00 | 0.22 | 0.22 | 98 | 1015.1 |
| 20260507014607 | 53 | 48 | 0.0 | 0.0 | 0.00 | 0.22 | 0.22 | 98 | 1015.2 |
| 20260507014102 | 53 | 48 | 0.0 | 0.0 | 0.00 | 0.22 | 0.22 | 98 | 1015.2 |
| 20260507013559 | 53 | 48 | 0.0 | 0.0 | 0.00 | 0.22 | 0.22 | 97 | 1015.1 |
| 20260507013057 | 53 | 48 | 0.0 | 0.0 | 0.00 | 0.22 | 0.22 | 97 | 1015.4 |
| 20260507012554 | 53 | 48 | 0.0 | 0.0 | 0.00 | 0.22 | 0.22 | 97 | 1015.6 |
| 20260507012049 | 53 | 48 | 0.0 | 0.0 | 0.00 | 0.22 | 0.22 | 97 | 1015.3 |
| 20260507011548 | 54 | 48 | 0.0 | 0.0 | 0.00 | 0.22 | 0.22 | 97 | 1015.4 |
| 20260507011044 | 54 | 48 | 0.0 | 0.0 | 0.00 | 0.22 | 0.22 | 97 | 1015.4 |
| 20260507010538 | 54 | 48 | 0.0 | 0.0 | 0.00 | 0.22 | 0.22 | 97 | 1015.4 |
| 20260507010034 | 54 | 48 | 0.0 | 0.0 | 0.00 | 0.22 | 0.22 | 97 | 1015.7 |
| 20260507005533 | 54 | 48 | 0.0 | 0.0 | 0.00 | 0.22 | 0.22 | 97 | 1015.4 |
| 20260507005028 | 54 | 48 | 0.0 | 0.0 | 0.00 | 0.22 | 0.22 | 96 | 1015.6 |
| 20260507004526 | 54 | 48 | 0.0 | 0.0 | 0.00 | 0.22 | 0.22 | 96 | 1015.6 |
| 20260507004023 | 54 | 48 | 0.0 | 0.0 | 0.00 | 0.22 | 0.22 | 96 | 1015.6 |
| 20260507003518 | 54 | 48 | 0.0 | 0.0 | 0.00 | 0.22 | 0.22 | 96 | 1015.8 |
| 20260507003014 | 54 | 48 | 0.0 | 0.0 | 0.00 | 0.22 | 0.22 | 96 | 1015.8 |
| 20260507002510 | 54 | 48 | 0.0 | 0.0 | 0.00 | 0.22 | 0.22 | 96 | 1015.7 |
| 20260507002007 | 54 | 48 | 0.0 | 0.0 | 0.00 | 0.22 | 0.22 | 96 | 1015.6 |
| 20260507001503 | 54 | 48 | 0.0 | 0.0 | 0.00 | 0.22 | 0.22 | 96 | 1015.8 |
| 20260507001001 | 54 | 47 | 0.0 | 0.0 | 0.00 | 0.22 | 0.22 | 96 | 1015.2 |
| 20260507000456 | 54 | 47 | 0.0 | 0.0 | 0.00 | 0.22 | 0.22 | 95 | 1015.2 |
| 20260506235952 | 54 | 47 | 0.0 | 0.0 | 0.00 | 0.22 | 0.22 | 95 | 1015.0 |
| 20260506235450 | 54 | 47 | 0.0 | 0.0 | 0.00 | 0.22 | 0.22 | 96 | 1014.9 |
| 20260506234945 | 55 | 46 | 0.0 | 0.0 | 0.00 | 0.22 | 0.22 | 96 | 1014.8 |
| 20260506234443 | 55 | 53 | 0.9 | 0.9 | 0.00 | 0.22 | 0.22 | 96 | 1014.4 |
| 20260506233940 | 55 | 55 | 0.0 | 0.0 | 0.00 | 0.22 | 0.22 | 96 | 1014.0 |
| 20260506233437 | 55 | 55 | 0.0 | 0.0 | 0.00 | 0.22 | 0.22 | 96 | 1014.2 |
| 20260506232933 | 55 | 55 | 0.0 | 0.0 | 0.00 | 0.22 | 0.22 | 96 | 1013.8 |
| 20260506232430 | 55 | 55 | 0.0 | 0.0 | 0.00 | 0.22 | 0.22 | 96 | 1014.1 |
| 20260506231925 | 55 | 55 | 0.0 | 0.0 | 0.00 | 0.22 | 0.22 | 96 | 1014.1 |
| 20260506231423 | 55 | 55 | 0.0 | 0.0 | 0.00 | 0.22 | 0.22 | 96 | 1013.8 |
| 20260506230920 | 55 | 55 | 0.0 | 0.0 | 0.00 | 0.22 | 0.22 | 96 | 1013.6 |
| 20260506230417 | 54 | 55 | 0.0 | 0.0 | 0.00 | 0.22 | 0.22 | 96 | 1013.3 |
| 20260506225913 | 54 | 55 | 0.0 | 0.0 | 0.00 | 0.22 | 0.22 | 95 | 1013.3 |
| 20260506225411 | 54 | 55 | 0.0 | 0.0 | 0.00 | 0.22 | 0.22 | 95 | 1013.2 |
| 20260506224908 | 54 | 56 | 0.0 | 0.0 | 0.00 | 0.22 | 0.22 | 95 | 1013.2 |
| 20260506224405 | 55 | 54 | 0.0 | 0.0 | 0.00 | 0.22 | 0.22 | 95 | 1013.6 |
| 20260506223901 | 55 | 50 | 0.0 | 0.0 | 0.00 | 0.22 | 0.22 | 96 | 1013.8 |
| 20260506223356 | 55 | 45 | 0.0 | 0.0 | 0.00 | 0.22 | 0.22 | 96 | 1013.7 |
| 20260506222854 | 55 | 43 | 0.0 | 0.0 | 0.00 | 0.22 | 0.22 | 95 | 1013.9 |
| 20260506222349 | 55 | 47 | 0.0 | 0.0 | 0.00 | 0.22 | 0.22 | 95 | 1013.8 |
| 20260506221847 | 55 | 47 | 0.0 | 0.0 | 0.05 | 0.22 | 0.22 | 95 | 1014.4 |
| 20260506221344 | 55 | 46 | 0.0 | 0.0 | 0.12 | 0.22 | 0.22 | 95 | 1015.0 |
| 20260506220842 | 55 | 46 | 0.0 | 0.0 | 0.07 | 0.21 | 0.21 | 94 | 1014.9 |
| 20260506220337 | 55 | 45 | 0.0 | 0.0 | 0.07 | 0.21 | 0.21 | 94 | 1015.0 |
| 20260506215834 | 55 | 49 | 0.0 | 0.0 | 0.00 | 0.20 | 0.20 | 94 | 1014.8 |
| 20260506215330 | 55 | 40 | 0.0 | 0.0 | 0.00 | 0.20 | 0.20 | 94 | 1014.8 |
| 20260506214826 | 55 | 40 | 0.0 | 0.0 | 0.00 | 0.20 | 0.20 | 94 | 1014.8 |
| 20260506214323 | 55 | 40 | 0.0 | 0.0 | 0.00 | 0.20 | 0.20 | 93 | 1014.8 |
| 20260506213821 | 55 | 40 | 0.0 | 0.0 | 0.00 | 0.20 | 0.20 | 93 | 1014.7 |
| 20260506213318 | 55 | 40 | 0.0 | 0.0 | 0.00 | 0.20 | 0.20 | 93 | 1014.7 |
| 20260506212816 | 55 | 40 | 0.0 | 0.0 | 0.00 | 0.20 | 0.20 | 93 | 1014.6 |
| 20260506212311 | 55 | 38 | 0.0 | 0.0 | 0.00 | 0.20 | 0.20 | 93 | 1014.7 |
| 20260506211806 | 56 | 47 | 0.0 | 0.0 | 0.00 | 0.20 | 0.20 | 94 | 1014.5 |
| 20260506211303 | 55 | 46 | 0.0 | 0.0 | 0.00 | 0.20 | 0.20 | 94 | 1014.6 |
| 20260506210801 | 55 | 47 | 0.0 | 0.0 | 0.05 | 0.20 | 0.20 | 94 | 1014.7 |
| 20260506210257 | 55 | 47 | 0.0 | 0.0 | 0.05 | 0.20 | 0.20 | 94 | 1014.5 |
| 20260506205754 | 55 | 47 | 0.0 | 0.0 | 0.07 | 0.19 | 0.19 | 94 | 1014.6 |
| 20260506205250 | 55 | 47 | 0.0 | 0.0 | 0.07 | 0.19 | 0.19 | 94 | 1014.8 |
| 20260506204746 | 55 | 47 | 0.0 | 0.0 | 0.05 | 0.18 | 0.18 | 93 | 1014.5 |
| 20260506204244 | 55 | 47 | 0.0 | 0.0 | 0.05 | 0.18 | 0.18 | 92 | 1014.9 |
| 20260506203742 | 55 | 47 | 0.0 | 0.0 | 0.00 | 0.17 | 0.17 | 91 | 1015.0 |
| 20260506203239 | 55 | 47 | 0.0 | 0.0 | 0.07 | 0.17 | 0.17 | 91 | 1015.0 |
| 20260506202736 | 55 | 47 | 0.0 | 0.0 | 0.07 | 0.17 | 0.17 | 91 | 1014.8 |
| 20260506202232 | 55 | 46 | 0.0 | 0.0 | 0.00 | 0.16 | 0.16 | 91 | 1015.0 |
| 20260506201729 | 55 | 46 | 0.0 | 0.0 | 0.00 | 0.16 | 0.16 | 91 | 1015.1 |
| 20260506201226 | 56 | 46 | 0.0 | 0.0 | 0.00 | 0.16 | 0.16 | 92 | 1014.9 |
| 20260506200723 | 56 | 46 | 0.0 | 0.0 | 0.05 | 0.16 | 0.16 | 91 | 1014.7 |
| 20260506200220 | 56 | 46 | 0.0 | 0.0 | 0.05 | 0.16 | 0.16 | 91 | 1014.5 |
| 20260506195716 | 56 | 45 | 0.0 | 0.0 | 0.00 | 0.15 | 0.15 | 90 | 1014.8 |
| 20260506195213 | 56 | 44 | 0.0 | 0.0 | 0.07 | 0.15 | 0.15 | 90 | 1015.3 |
| 20260506194710 | 56 | 44 | 0.0 | 0.0 | 0.07 | 0.15 | 0.15 | 89 | 1015.4 |
| 20260506194206 | 56 | 44 | 0.0 | 0.0 | 0.00 | 0.14 | 0.14 | 87 | 1015.5 |
| 20260506193704 | 56 | 43 | 0.0 | 0.0 | 0.05 | 0.14 | 0.14 | 85 | 1015.8 |
| 20260506193201 | 56 | 56 | 0.0 | 0.0 | 0.05 | 0.14 | 0.14 | 83 | 1016.0 |
| 20260506192658 | 57 | 63 | 0.0 | 0.0 | 0.00 | 0.13 | 0.13 | 82 | 1015.4 |
| 20260506192154 | 56 | 52 | 0.0 | 0.0 | 0.00 | 0.13 | 0.13 | 80 | 1015.4 |
| 20260506191651 | 56 | 60 | 0.0 | 0.0 | 0.00 | 0.13 | 0.13 | 80 | 1015.5 |
| 20260506191147 | 56 | 70 | 0.0 | 0.9 | 0.00 | 0.13 | 0.13 | 80 | 1014.9 |
| 20260506190645 | 57 | 61 | 0.0 | 0.0 | 0.00 | 0.13 | 0.13 | 80 | 1014.7 |
| 20260506190141 | 57 | 54 | 0.0 | 0.0 | 0.00 | 0.13 | 0.13 | 80 | 1015.3 |
| 20260506185638 | 57 | 43 | 0.0 | 0.0 | 0.00 | 0.13 | 0.13 | 78 | 1015.6 |
| 20260506185134 | 57 | 42 | 0.0 | 0.0 | 0.00 | 0.13 | 0.13 | 78 | 1014.9 |
| 20260506184632 | 57 | 57 | 0.0 | 0.0 | 0.00 | 0.13 | 0.13 | 78 | 1014.4 |
| 20260506184129 | 57 | 43 | 0.9 | 0.9 | 0.00 | 0.13 | 0.13 | 78 | 1014.5 |
| 20260506183626 | 57 | 53 | 0.0 | 0.0 | 0.00 | 0.13 | 0.13 | 78 | 1014.6 |
| 20260506183121 | 57 | 68 | 0.9 | 0.9 | 0.00 | 0.13 | 0.13 | 79 | 1015.1 |
| 20260506182619 | 57 | 46 | 0.0 | 0.0 | 0.00 | 0.13 | 0.13 | 81 | 1015.3 |
| 20260506182116 | 56 | 44 | 0.9 | 0.9 | 0.00 | 0.13 | 0.13 | 79 | 1015.2 |
| 20260506181614 | 56 | 40 | 0.0 | 0.0 | 0.00 | 0.13 | 0.13 | 79 | 1015.1 |
| 20260506181111 | 56 | 20 | 0.9 | 1.7 | 0.00 | 0.13 | 0.13 | 81 | 1015.1 |
| 20260506180608 | 57 | 31 | 1.7 | 1.7 | 0.00 | 0.13 | 0.13 | 79 | 1015.1 |
| 20260506180104 | 57 | 124 | 1.7 | 1.7 | 0.00 | 0.13 | 0.13 | 79 | 1015.0 |
| 20260506175600 | 57 | 43 | 0.0 | 0.9 | 0.00 | 0.13 | 0.13 | 78 | 1014.5 |
| 20260506175056 | 57 | 35 | 0.9 | 1.7 | 0.00 | 0.13 | 0.13 | 79 | 1014.6 |
| 20260506174556 | 57 | 68 | 0.0 | 0.9 | 0.00 | 0.13 | 0.13 | 79 | 1014.6 |
| 20260506174051 | 57 | 78 | 0.9 | 0.9 | 0.00 | 0.13 | 0.13 | 79 | 1015.0 |
| 20260506173549 | 57 | 52 | 0.0 | 0.9 | 0.00 | 0.13 | 0.13 | 77 | 1015.3 |
| 20260506173046 | 58 | 69 | 0.9 | 0.9 | 0.00 | 0.13 | 0.13 | 75 | 1015.4 |
| 20260506172543 | 58 | 64 | 0.0 | 0.0 | 0.00 | 0.13 | 0.13 | 77 | 1015.1 |
| 20260506172039 | 58 | 49 | 0.0 | 0.0 | 0.00 | 0.13 | 0.13 | 77 | 1015.0 |
| 20260506171537 | 57 | 39 | 0.9 | 0.9 | 0.00 | 0.13 | 0.13 | 79 | 1014.8 |
| 20260506171034 | 56 | 41 | 0.9 | 0.9 | 0.00 | 0.13 | 0.13 | 81 | 1015.1 |
| 20260506170532 | 56 | 40 | 0.0 | 0.9 | 0.00 | 0.13 | 0.13 | 80 | 1015.1 |
| 20260506170029 | 56 | 51 | 0.0 | 0.0 | 0.00 | 0.13 | 0.13 | 80 | 1014.9 |
| 20260506165528 | 56 | 57 | 0.0 | 0.0 | 0.00 | 0.13 | 0.13 | 80 | 1014.9 |
| 20260506165023 | 57 | 37 | 0.9 | 1.7 | 0.00 | 0.13 | 0.13 | 78 | 1015.0 |
| 20260506164520 | 57 | 41 | 0.9 | 0.9 | 0.00 | 0.13 | 0.13 | 78 | 1015.0 |
| 20260506164018 | 57 | 33 | 0.9 | 0.9 | 0.00 | 0.13 | 0.13 | 77 | 1015.0 |
| 20260506163514 | 57 | 40 | 0.9 | 0.9 | 0.00 | 0.13 | 0.13 | 77 | 1014.6 |
| 20260506163010 | 57 | 73 | 0.9 | 1.7 | 0.00 | 0.13 | 0.13 | 77 | 1014.5 |
| 20260506162506 | 57 | 47 | 0.9 | 1.7 | 0.00 | 0.13 | 0.13 | 78 | 1014.6 |
| 20260506162003 | 57 | 39 | 1.7 | 1.7 | 0.00 | 0.13 | 0.13 | 77 | 1014.5 |
| 20260506161501 | 56 | 55 | 0.9 | 0.9 | 0.00 | 0.13 | 0.13 | 77 | 1014.3 |
| 20260506160958 | 56 | 17 | 0.9 | 0.9 | 0.00 | 0.13 | 0.13 | 78 | 1014.5 |
| 20260506160455 | 56 | 56 | 0.0 | 0.0 | 0.00 | 0.13 | 0.13 | 78 | 1014.7 |
| 20260506155952 | 56 | 46 | 0.0 | 0.9 | 0.00 | 0.13 | 0.13 | 79 | 1014.8 |
| 20260506155450 | 55 | 62 | 0.0 | 0.9 | 0.00 | 0.13 | 0.13 | 81 | 1014.9 |
| 20260506153616 | 55 | 53 | 0.0 | 0.0 | 0.00 | 0.13 | 0.13 | 81 | 1015.1 |
| 20260506153114 | 54 | 56 | 0.0 | 0.0 | 0.00 | 0.13 | 0.13 | 81 | 1015.2 |
| 20260506152611 | 54 | 42 | 0.0 | 0.0 | 0.00 | 0.13 | 0.13 | 82 | 1015.6 |
| 20260506152109 | 54 | 47 | 0.0 | 0.0 | 0.00 | 0.13 | 0.13 | 81 | 1015.3 |
| 20260506151607 | 54 | 52 | 0.0 | 0.0 | 0.00 | 0.13 | 0.13 | 82 | 1015.0 |
| 20260506151103 | 54 | 55 | 0.0 | 0.0 | 0.00 | 0.13 | 0.13 | 82 | 1014.7 |
| 20260506150600 | 54 | 54 | 0.0 | 0.0 | 0.00 | 0.13 | 0.13 | 81 | 1014.7 |
| 20260506150057 | 53 | 54 | 0.0 | 0.0 | 0.00 | 0.13 | 0.13 | 83 | 1014.8 |
| 20260506145554 | 53 | 37 | 0.9 | 0.9 | 0.00 | 0.13 | 0.13 | 82 | 1014.8 |
| 20260506145051 | 53 | 58 | 0.9 | 0.9 | 0.00 | 0.13 | 0.13 | 83 | 1014.7 |
| 20260506144548 | 52 | 41 | 0.0 | 0.0 | 0.00 | 0.13 | 0.13 | 85 | 1014.7 |
| 20260506144045 | 51 | 36 | 1.7 | 1.7 | 0.00 | 0.13 | 0.13 | 85 | 1014.4 |
| 20260506143543 | 51 | 40 | 0.9 | 1.7 | 0.00 | 0.13 | 0.13 | 84 | 1014.4 |
| 20260506143041 | 51 | 37 | 0.9 | 1.7 | 0.00 | 0.13 | 0.13 | 86 | 1014.2 |
| 20260506142538 | 51 | 60 | 0.0 | 0.0 | 0.00 | 0.13 | 0.13 | 86 | 1014.6 |
| 20260506142037 | 51 | 55 | 0.0 | 0.0 | 0.00 | 0.13 | 0.13 | 86 | 1014.4 |
| 20260506141534 | 50 | 54 | 0.0 | 0.0 | 0.00 | 0.13 | 0.13 | 87 | 1014.2 |
| 20260506141032 | 50 | 53 | 0.0 | 0.0 | 0.00 | 0.13 | 0.13 | 87 | 1014.2 |
| 20260506140529 | 50 | 53 | 0.0 | 0.0 | 0.00 | 0.13 | 0.13 | 87 | 1013.8 |
| 20260506140026 | 50 | 56 | 0.0 | 0.9 | 0.00 | 0.13 | 0.13 | 88 | 1013.8 |
| 20260506135523 | 50 | 71 | 1.7 | 2.6 | 0.00 | 0.13 | 0.13 | 89 | 1013.9 |
| 20260506135019 | 50 | 59 | 0.0 | 0.0 | 0.00 | 0.13 | 0.13 | 89 | 1013.7 |
| 20260506134515 | 50 | 52 | 0.0 | 0.0 | 0.00 | 0.13 | 0.13 | 89 | 1013.7 |
| 20260506134012 | 50 | 68 | 0.9 | 0.9 | 0.00 | 0.13 | 0.13 | 89 | 1013.5 |
| 20260506133509 | 49 | 55 | 0.0 | 0.0 | 0.00 | 0.13 | 0.13 | 90 | 1013.5 |